Location: NJAA Observatory
(40.6819°N, 74.8979°W)
Time: 14:36:32
(UTC-04:00)

Cosmos 2237 Rocket - Visible Passes

Search period start: 22 July 2017 00:00
Search period end: 01 August 2017 00:00
Orbit: 836 x 848 km, 71.0° (Epoch: 21 July)

Date Brightness Start Highest point End Pass type
(mag) Time Alt. Az. Time Alt. Az. Time Alt. Az.
22 Jul 4.4 04:19:47 10° SSE 04:23:51 21° E 04:27:55 10° NE visible
23 Jul 4.4 04:05:06 10° SE 04:09:02 20° E 04:12:58 10° NE visible
24 Jul 4.4 03:50:26 10° SE 03:54:13 19° E 03:58:01 10° ENE visible
25 Jul 4.4 03:35:47 10° SE 03:39:25 18° E 03:43:02 10° ENE visible
25 Jul 2.4 05:17:20 10° SW 05:22:54 62° WNW 05:28:28 10° NNE visible
26 Jul 4.4 03:21:09 10° SE 03:24:37 17° E 03:28:04 10° ENE visible
26 Jul 2.3 05:02:28 10° SSW 05:08:03 65° WNW 05:13:39 10° NNE visible
27 Jul 4.5 03:06:31 10° SE 03:09:48 16° E 03:13:04 10° ENE visible
27 Jul 2.3 04:48:06 13° SSW 04:53:12 68° WNW 04:58:49 10° NNE visible
28 Jul 4.4 02:52:10 11° SE 02:55:00 15° E 02:58:04 10° ENE visible
28 Jul 2.2 04:34:00 17° SSW 04:38:21 71° WNW 04:43:59 10° NNE visible
29 Jul 4.4 02:38:02 12° ESE 02:40:12 14° E 02:43:02 10° ENE visible
29 Jul 2.2 04:19:52 23° SSW 04:23:31 75° WNW 04:29:09 10° NNE visible
30 Jul 4.4 02:23:51 12° ESE 02:25:23 13° E 02:27:58 10° ENE visible
30 Jul 2.1 04:05:41 29° SSW 04:08:40 79° WNW 04:14:19 10° NNE visible
31 Jul 4.4 02:09:38 12° ESE 02:10:35 13° E 02:12:53 10° ENE visible
31 Jul 2.1 03:51:28 37° SSW 03:53:49 82° WNW 03:59:29 10° NNE visible
